Location: Novokuznetsk
(53.7500°N, 87.1000°E)
Time: 18:53:54
(UTC+06:00)

ISS - Pass Details

Date: 26 April 2026
Orbit: 414 x 424 km, 51.6° (Epoch: 18 May)

Event Time Altitude Azimuth Distance (km) Brightness Sun altitude
Exits shadow 03:20:20 19° 213° (SSW) 1,083 -2.3 -11.5°
Maximum altitude 03:22:14 34° 158° (SSE) 711 -2.8 -11.3°
Drops below altitude 10° 03:25:20 10° 91° (E) 1,507 -0.2 -11.0°
Sets 03:27:33 0° 82° (E) 2,376 1.1 -10.7°
